Regional Weather Roundup
Issued by NWS

Home | Current Version | Previous Version | Graphics & Text | Print | Product List | Glossary Off
Versions: 1 2 3 4 5 6 7 8 9 10 11 12 13 14 15 16 17 18 19 20 21 22 23 24 25 26 27 28 29 30 31 32 33 34 35 36 37 38 39 40 41 42 43 44 45 46 47 48 49 50

000
ASUS43 KTOP 300208
RWRKS

WEATHER ROUNDUP FOR KANSAS
NATIONAL WEATHER SERVICE GOODLAND KS
900 PM CDT FRI JUL 29 2016

NOTE:  "FAIR" INDICATES FEW OR NO CLOUDS BELOW 12,000 FEET WITH NO
SIGNIFICANT WEATHER AND/OR OBSTRUCTIONS TO VISIBILITY.

KSZ001>006-013>018-027>032-041>047-300300-
NORTHWEST KANSAS

CITY           SKY/WX    TMP DP  RH WIND       PRES   REMARKS
GOODLAND       CLOUDY    69  63  81 E6        30.07F
HAYS           CLEAR     79  61  53 E8        30.00S
HILL CITY      CLOUDY    77  65  66 E5        30.01S
RUSSELL        CLEAR     78  64  61 E7        29.98
$$

KSZ061>065-074>080-084>089-300300-
SOUTHWEST KANSAS

CITY           SKY/WX    TMP DP  RH WIND       PRES   REMARKS
DODGE CITY     CLOUDY    76  67  73 E6        30.03R
ELKHART          N/A     75  61  62 E9          N/A
GARDEN CITY    CLOUDY    75  69  81 CALM      30.05R
GREAT BEND     CLEAR     81  64  57 E5        29.98S
LIBERAL        CLOUDY    79  61  53 E12       30.04R
PRATT          CLOUDY    78  65  63 NE3       30.00S
$$

KSZ066>073-081>083-090>101-300300-
SOUTHEAST KANSAS

CITY           SKY/WX    TMP DP  RH WIND       PRES   REMARKS
CHANUTE        PTCLDY    79  70  74 NE3       29.96R
COFFEYVILLE    CLEAR     80  70  71 CALM      29.95R
HUTCHINSON     PTCLDY    78  68  71 E7        29.98R
MEDICINE LODGE   N/A     81  67  62 SE5       29.97R
NEWTON         CLOUDY    79  69  71 E5        29.99R
PARSONS        CLEAR     76  71  85 MISG      29.97R
WICHITA INTL   CLEAR     81  68  64 E9        29.96S
WICHITA JABRA  PTCLDY    79  69  71 CALM      29.97S
WICHITA MCCONL CLEAR     81  67  61 E5        29.97R
WINFIELD       CLEAR     81  70  69 E5        29.97R
$$

KSZ007>012-019>026-033>040-048>060-102>105-300300-
NORTHEAST KANSAS

CITY           SKY/WX    TMP DP  RH WIND       PRES   REMARKS
CONCORDIA      CLEAR     75  66  73 E3        30.00R
EMPORIA        CLEAR     77  69  76 CALM      29.98R
LAWRENCE       CLEAR     72  66  81 N5        29.98R
MANHATTAN      CLEAR     77  67  71 CALM      29.98R
MARYSVILLE     CLEAR     73  64  73 E3        30.01R
OLATHE IND     CLEAR     73  66  78 N6        29.98R
OLATHE EXE     CLEAR     78  61  55 N7        29.98R
SALINA         CLEAR     82  67  60 E6        29.98R
TOPEKA BILLARD CLEAR     76  65  68 NE5       29.98R
TOPEKA FORBES  CLEAR     77  66  68 NE3       29.98R
$$



USA.gov is the U.S. government's official web portal to all federal, state and local government web resources and services.